Date String (YYYY-MM-DD hh:mm:ss) UTC,Instrument flags,Ambient pressure (hPa),Sample flow (lpm),Bypass flow (lpm),Sample temperature (°C),Ambient temperature (°C),ASC tube jacket temperature (°C),LED temperature (°C),Box temperature (°C),Sample RH (%),Span deviation,Mass concentration (μg/m³),Mass concentration (μg/m³),Mass concentration (μg/m³)
DateTimeUTC,F1_M11,P_M11,Q1_M11,Q2_M11,T1_M11,T2_M11,T3_M11,T4_M11,T5_M11,U1_M11,ZSPAN_M11,X0_M11,X2_M11,X1_M11
2022-10-31 23:00:00,,0822.3,4.99,0.00,30.0,28.1,00.0,38.9,31.8,07.0,0000.0,0011.47,0003.34,0002.67
2022-10-31 23:01:00,,0822.2,5.01,0.00,30.0,28.3,00.0,38.9,31.9,06.9,0000.0,0011.43,0003.34,0002.69
2022-10-31 23:02:00,,0822.0,4.99,0.00,30.1,28.4,00.0,38.9,31.9,06.9,0000.0,0011.34,0003.31,0002.68
2022-10-31 23:03:00,,0822.1,5.01,0.00,30.1,28.6,00.0,38.9,32.0,06.8,0000.0,0011.30,0003.32,0002.69
2022-10-31 23:04:00,,0822.1,4.99,0.00,30.1,28.7,00.0,38.9,32.0,06.7,0000.0,0011.60,0003.32,0002.69
2022-10-31 23:05:00,,0821.8,5.01,0.00,30.1,28.8,00.0,38.9,32.0,06.7,0000.0,0011.52,0003.36,0002.69
2022-10-31 23:06:00,,0822.3,5.00,0.00,30.1,28.9,00.0,38.9,32.1,06.7,0000.0,0010.53,0003.38,0002.70
2022-10-31 23:07:00,,0822.3,5.00,0.00,30.2,29.0,00.0,38.9,32.1,06.7,0000.0,0009.32,0003.38,0002.70
2022-10-31 23:08:00,,0822.1,4.99,0.00,30.2,29.1,00.0,38.9,32.1,06.8,0000.0,0008.23,0003.36,0002.71
2022-10-31 23:09:00,,0822.1,4.99,0.00,30.2,29.1,00.0,38.9,32.2,06.8,0000.0,0007.65,0003.37,0002.70
2022-10-31 23:10:00,,0822.1,5.02,0.00,30.3,29.2,00.0,39.0,32.2,06.8,0000.0,0007.68,0003.37,0002.70
2022-10-31 23:11:00,,0822.3,4.99,0.00,30.3,29.2,00.0,39.0,32.2,06.8,0000.0,0007.83,0003.33,0002.69
2022-10-31 23:12:00,,0821.9,5.00,0.00,30.3,29.2,00.0,39.0,32.3,06.8,0000.0,0008.23,0003.31,0002.68
2022-10-31 23:13:00,,0822.1,5.02,0.00,30.3,28.0,00.0,39.0,32.1,06.8,0000.0,0009.02,0003.31,0002.68
2022-10-31 23:14:00,,0822.0,4.98,0.00,30.3,26.3,00.0,38.9,31.9,06.8,0000.0,0009.12,0003.32,0002.66
2022-10-31 23:15:00,,0822.1,5.02,0.00,30.2,26.1,00.0,38.8,31.9,06.9,0000.0,0009.09,0003.34,0002.66
2022-10-31 23:16:00,,0822.4,4.99,0.00,30.1,26.3,00.0,38.8,31.6,06.9,0000.0,0008.66,0003.35,0002.67
2022-10-31 23:17:00,,0822.1,5.00,0.00,30.0,26.7,00.0,38.8,31.5,07.0,0000.0,0008.63,0003.36,0002.66
2022-10-31 23:18:00,,0821.9,4.99,0.00,29.9,27.1,00.0,38.8,31.5,07.0,0000.0,0008.73,0003.37,0002.66
2022-10-31 23:19:00,,0821.9,5.02,0.00,29.9,27.4,00.0,38.8,31.6,07.0,0000.0,0008.60,0003.38,0002.65
2022-10-31 23:20:00,,0822.0,4.99,0.00,29.9,27.7,00.0,38.7,31.7,06.9,0000.0,0008.77,0003.37,0002.66
2022-10-31 23:21:00,,0822.0,5.00,0.00,29.9,28.0,00.0,38.7,31.7,07.0,0000.0,0009.80,0003.37,0002.67
2022-10-31 23:22:00,,0822.0,5.00,0.00,29.9,28.1,00.0,38.7,31.7,07.0,0000.0,0010.37,0003.41,0002.68
2022-10-31 23:23:00,,0822.0,5.00,0.00,29.9,28.3,00.0,38.7,31.7,07.0,0000.0,0010.09,0003.41,0002.67
2022-10-31 23:24:00,,0822.0,5.00,0.00,29.9,28.4,00.0,38.7,31.8,07.0,0000.0,0009.49,0003.41,0002.66
2022-10-31 23:25:00,,0822.0,5.01,0.00,30.0,28.6,00.0,38.8,31.9,06.9,0000.0,0009.66,0003.43,0002.66
2022-10-31 23:26:00,,0822.0,4.99,0.00,30.0,28.7,00.0,38.8,31.9,06.9,0000.0,0009.43,0003.40,0002.66
2022-10-31 23:27:00,,0822.0,5.00,0.00,30.0,28.8,00.0,38.8,32.0,06.9,0000.0,0009.05,0003.37,0002.65
2022-10-31 23:28:00,,0822.0,5.00,0.00,30.1,28.8,00.0,38.8,32.0,06.9,0000.0,0009.18,0003.38,0002.65
2022-10-31 23:29:00,,0822.0,5.00,0.00,30.1,28.9,00.0,38.8,32.0,06.9,0000.0,0009.16,0003.38,0002.65
2022-10-31 23:30:00,,0822.1,5.01,0.00,30.1,29.0,00.0,38.8,32.1,06.9,0000.0,0009.39,0003.40,0002.66
2022-10-31 23:31:00,,0822.1,5.00,0.00,30.2,28.7,00.0,38.9,32.1,06.9,0000.0,0009.37,0003.43,0002.65
2022-10-31 23:32:00,,0822.1,4.99,0.00,30.2,27.3,00.0,38.8,31.9,06.8,0000.0,0008.39,0003.40,0002.64
2022-10-31 23:33:00,,0822.1,5.01,0.00,30.1,26.7,00.0,38.8,31.9,06.8,0000.0,0007.47,0003.37,0002.63
2022-10-31 23:34:00,,0822.1,4.98,0.00,30.0,26.8,00.0,38.7,31.7,06.8,0000.0,0007.47,0003.38,0002.63
2022-10-31 23:35:00,,0822.1,5.02,0.00,30.0,27.1,00.0,38.7,31.7,06.9,0000.0,0007.17,0003.38,0002.64
2022-10-31 23:36:00,,0822.1,4.99,0.00,29.9,27.5,00.0,38.7,31.7,06.9,0000.0,0006.65,0003.37,0002.66
2022-10-31 23:37:00,,0822.1,5.00,0.00,29.9,27.7,00.0,38.7,31.7,06.9,0000.0,0006.43,0003.36,0002.66
2022-10-31 23:38:00,,0822.1,5.01,0.00,29.9,28.0,00.0,38.7,31.8,06.9,0000.0,0006.48,0003.38,0002.68
2022-10-31 23:39:00,,0822.1,4.99,0.00,29.9,28.1,00.0,38.7,31.8,06.9,0000.0,0006.31,0003.36,0002.68
2022-10-31 23:40:00,,0822.1,5.02,0.00,29.9,28.3,00.0,38.7,31.8,06.9,0000.0,0006.83,0003.35,0002.69
2022-10-31 23:41:00,,0822.2,4.99,0.00,30.0,28.5,00.0,38.7,31.9,06.9,0000.0,0006.53,0003.32,0002.70
2022-10-31 23:42:00,,0822.2,4.99,0.00,30.0,28.6,00.0,38.8,31.9,06.9,0000.0,0006.88,0003.32,0002.72
2022-10-31 23:43:00,,0822.2,5.00,0.00,30.0,28.7,00.0,38.8,31.9,07.0,0000.0,0007.18,0003.36,0002.73
2022-10-31 23:44:00,,0822.2,5.02,0.00,30.0,28.8,00.0,38.8,31.9,07.1,0000.0,0007.41,0003.40,0002.76
2022-10-31 23:45:00,,0822.2,4.99,0.00,30.1,28.8,00.0,38.8,32.0,07.1,0000.0,0007.48,0003.44,0002.78
2022-10-31 23:46:00,,0822.2,4.99,0.00,30.1,28.9,00.0,38.8,32.0,07.1,0000.0,0007.64,0003.50,0002.81
2022-10-31 23:47:00,,0822.2,5.00,0.00,30.1,29.0,00.0,38.8,32.1,07.0,0000.0,0008.34,0003.56,0002.83
2022-10-31 23:48:00,,0822.2,5.00,0.00,30.2,29.0,00.0,38.9,32.1,07.0,0000.0,0008.86,0003.60,0002.83
2022-10-31 23:49:00,,0822.3,5.00,0.00,30.2,29.1,00.0,38.9,32.2,06.9,0000.0,0009.34,0003.60,0002.83
2022-10-31 23:50:00,,0822.3,5.00,0.00,30.2,28.4,00.0,38.9,32.1,07.0,0000.0,0009.54,0003.60,0002.84
2022-10-31 23:51:00,,0822.3,5.01,0.00,30.2,26.9,00.0,38.8,32.0,07.0,0000.0,0009.27,0003.58,0002.85
2022-10-31 23:52:00,,0822.3,5.01,0.00,30.1,26.7,00.0,38.8,31.9,07.0,0000.0,0009.75,0003.61,0002.86
2022-10-31 23:53:00,,0822.3,4.99,0.00,30.0,26.8,00.0,38.8,31.7,07.1,0000.0,0009.63,0003.59,0002.87
2022-10-31 23:54:00,,0822.3,5.01,0.00,30.0,27.1,00.0,38.8,31.7,07.3,0000.0,0009.88,0003.59,0002.88
2022-10-31 23:55:00,,0822.3,5.01,0.00,30.0,27.5,00.0,38.7,31.7,07.3,0000.0,0009.96,0003.59,0002.88
2022-10-31 23:56:00,,0822.4,4.98,0.00,29.9,27.8,00.0,38.7,31.8,07.5,0000.0,0010.55,0003.59,0002.88
2022-10-31 23:57:00,,0822.3,5.01,0.00,29.9,28.0,00.0,38.7,31.8,07.6,0000.0,0011.18,0003.58,0002.90
2022-10-31 23:58:00,,0822.4,4.98,0.00,29.9,28.2,00.0,38.7,31.8,07.6,0000.0,0010.74,0003.55,0002.90
2022-10-31 23:59:00,,0822.4,5.02,0.00,30.0,28.3,00.0,38.7,31.9,07.4,0000.0,0010.40,0003.57,0002.93
